Home   Weather   Chilliwack   Past weeks

Flag for Canada Past Weather in Chilliwack, British Columbia, Canada — Yesterday and Last 2 Weeks

Now
71 °F

Mild.


Feels Like: 74 °F
Forecast: 52 / 69 °F
Wind: 1 mph from East

Location: Agassiz

Current Time: Sep 26, 2016 at 5:27:43 PM

Latest Report: Sep 26, 2016 at 5:00 PM


Visibility: N/A

Pressure: 30.01 "Hg

Humidity: 71%

Dew Point: 61 °F

Location of ChilliwackLocation

Past Weather in Chilliwack — Graph

°F

Chilliwack Temperature Yesterday

Maximum temperature yesterday: 70 °F (at 5:00 PM)
Minimum temperature yesterday: 53 °F (at 7:00 AM)
Average temperature yesterday: 59 °F

High & Low Weather Summary for the Past Weeks

 TemperatureHumidityPressure
High78 °F (Sep 13, 5:00 PM)99% (Sep 19, 3:00 AM)30.44 "Hg (Sep 19, 3:00 AM)
Low47 °F (Sep 15, 7:00 AM)20% (Sep 12, 5:00 PM)29.80 "Hg (Sep 17, 10:00 AM)
Average60 °F70%30.09 "Hg
* Reported Sep 11 4:00 PM — Sep 26 4:00 PM, Chilliwack, Weather by CustomWeather, © 2016

Note: Actual official high and low records may vary slightly from our data, if they occured in-between our weather recording intervals... More about our weather records

Advertising

Chilliwack Weather History for the Previous 24 Hours

Scroll right to see more
 ConditionsComfort  
Time TempWeatherWind HumidityBarometerVisibility
4:00 PM
Mon, Sep 26
73 °FMild.6 mph58%29.99 "HgN/A
3:00 PM72 °FMild.3 mph60%30.00 "HgN/A
2:00 PM72 °FMild.5 mph54%30.02 "HgN/A
1:00 PM73 °FMild.2 mph57%30.03 "HgN/A
12:00 PM69 °FMild.3 mph63%30.07 "HgN/A
10:00 AM63 °FMild.6 mph68%30.12 "HgN/A
9:00 AM60 °FCool.6 mph74%30.13 "HgN/A
8:00 AM56 °FCool.6 mph82%30.16 "HgN/A
7:00 AM58 °FCool.3 mph80%30.16 "HgN/A
6:00 AM57 °FCool.3 mph83%30.16 "HgN/A
5:00 AM58 °FCool.1 mph80%30.19 "HgN/A
4:00 AM57 °FCool.5 mph85%30.20 "HgN/A
3:00 AM55 °FCool.1 mph87%30.23 "HgN/A
2:00 AM56 °FCool.2 mph89%30.24 "HgN/A
1:00 AM58 °FCool.6 mph84%30.26 "HgN/A
12:00 AM54 °FCool.2 mph91%30.28 "HgN/A
11:00 PM
Sun, Sep 25
55 °FCool.2 mph88%30.29 "HgN/A
10:00 PM57 °FCool.3 mph86%30.30 "HgN/A
9:00 PM56 °FCool.3 mph89%30.31 "HgN/A
8:00 PM57 °FCool.1 mph90%30.32 "HgN/A
7:00 PM61 °FCool.No wind74%30.32 "HgN/A
6:00 PM69 °FMild.2 mph55%30.34 "HgN/A
5:00 PM70 °FMild.No wind51%30.36 "HgN/A
Weather by CustomWeather, © 2016

See weather overviewHow to use our weather pages